Location: Aula-Vintri
(58.3875°N, 22.4322°E)
Time: 20:32:10
(UTC+00:00)

Cosmos 2227 Rocket - Pass Details

Date: 13 October 2019
Orbit: 838 x 846 km, 71.0° (Epoch: 14 November)

Event Time Altitude Azimuth Distance (km) Brightness Sun altitude
Rises 18:06:23 0° 289° (WNW) 3,413 7.0 -20.9°
Reaches altitude 10° 18:09:21 10° 303° (WNW) 2,480 5.7 -21.2°
Maximum altitude 18:13:51 23° 356° (N) 1,727 4.1 -21.8°
Enters shadow 18:17:48 12° 44° (NE) 2,331 4.3 -22.3°
